sat.trackr.live / text

‹ back to catalog

STARLINK-37951

NORAD 69684 · 2026-145H

PAYLOAD ACTIVE UNKNOWN

§ Identity

Operator
Country
US
Launch date
2026-06-25
Launch site
AFWTR
Launch vehicle
Mass (kg)
RCS (m²)

Purposes: comms

External: N2YO · Heavens-Above · Gunter

§ Orbital elements

Epoch: 2026-09-19T08:49:46.472736Z

Period
91.41 min
Inclination
97.2835°
Eccentricity
0.0002501
Mean motion
15.75235344 rev/d
Perigee alt
342.3 km
Apogee alt
345.6 km
Semi-major
6,722.1 km
B*
1.0111e-3
RAAN
112.4684°
Arg perigee
66.3629°
Mean anomaly
293.7898°
Rev number
1,359

§ Raw data

STARLINK-379511 69684U 26145H   26262.36789899  .00153747  00000+0  10111-2 0  99902 69684  97.2835 112.4684 0002501  66.3629 293.7898 15.75235344 13598

JSON: /api/v1/satellites/69684 · /tle

For live sub-satellite position, see the globe view (requires WebGL).

§ Visibility from observer

Set your observer location to see the next 7 days of passes ≥ 10°. The values pass through the URL so the page stays shareable.

No JS? Fill the form by hand. The geolocation button needs JavaScript.